Retour au catalogue

FENGYUN 1C DEB

ActifPO
NORAD 29738·DEBRIS·🇨🇳 China

Lancé May 10, 1999 depuis Taiyuan Satellite Launch Center

Loading…

Prochains Passages (prochaines 24 heures)

TLE

FraisSource: Space-Track

Époque: Sep 14, 2026, 06:25 UTC

1 29738U 99025AC  26257.26797158 -.00000222  00000-0 -25870-3 0  9994
2 29738  99.4190  19.5057 0849816  55.5134 312.3282 12.62476774896920

Suivez FENGYUN 1C DEB en temps réel avec AllMySat

Download on the App Store